This demonstration page uses our WeatherBlox Daily Observations layout. Learn more.

Left ArrowRight Arrow

34.74481, -87.66753

Hourly Observations for May 21, 2020

Temp ( °F °C ) Dew Point ( °F °C ) Humidity (%) Winds ( mph kmh ) Pressure ( in mb ) Visibility ( mi km ) Precip ( " mm )
12:53 am 00:53 Clear 63 17.2 59 15 87 87 NE 7 11 29.90 1013 10 16 0.00 0.00
1:53 am 01:53 Clear 60 15.6 58 14.4 93 93 SE 6 9 29.90 1012 10 16 0.00 0.00
2:53 am 02:53 Clear 62 16.7 58 14.4 86 86 SE 6 9 29.90 1013 10 16 0.00 0.00
3:53 am 03:53 Clear 60 15.6 57 13.9 90 90 E 3 6 29.92 1013 10 16 0.00 0.00
4:53 am 04:53 Clear 59 15 56 13.3 90 90 ESE 5 7 29.93 1014 10 16 0.00 0.00
5:53 am 05:53 Cloudy 60 15.6 56 13.3 86 86 SE 9 15 29.95 1014 10 16 0.00 0.00
6:53 am 06:53 Mostly Cloudy 61 16.1 56 13.3 84 84 SE 7 11 29.96 1015 10 16 0.00 0.00
7:53 am 07:53 Sunny 63 17.2 56 13.3 78 78 SE 6 9 29.98 1015 10 16 0.00 0.00
8:53 am 08:53 Sunny 66 18.9 56 13.3 70 70 ESE 5 7 29.99 1016 10 16 0.00 0.00
9:53 am 09:53 Cloudy 69 20.6 57 13.9 66 66 S 5 7 29.99 1016 10 16 0.00 0.00
10:53 am 10:53 Cloudy 72 22.2 59 15 64 64 VRB 3 6 29.99 1016 10 16 0.00 0.00
11:53 am 11:53 Cloudy 75 23.9 60 15.6 60 60 Calm 29.99 1016 10 16 0.00 0.00
12:53 pm 12:53 Mostly Cloudy 75 23.9 60 15.6 60 60 S 6 9 29.97 1015 10 16 0.00 0.00
1:53 pm 13:53 Partly Cloudy 78 25.6 59 15 52 52 VRB 3 6 29.95 1014 10 16 0.00 0.00
2:53 pm 14:53 Mostly Cloudy 79 26.1 57 13.9 47 47 Calm 29.93 1014 10 16 0.00 0.00
3:53 pm 15:53 Mostly Cloudy 80 26.7 58 14.4 47 47 Calm 29.93 1014 10 16 0.00 0.00
4:53 pm 16:53 Cloudy 79 26.1 60 15.6 52 52 SSW 5 7 29.94 1014 10 16 0.00 0.00
5:53 pm 17:53 Cloudy 78 25.6 59 15 52 52 S 3 6 29.93 1014 10 16 0.00 0.00
6:53 pm 18:53 Sunny 79 26.1 61 16.1 54 54 Calm 29.93 1014 10 16 0.00 0.00
7:53 pm 19:53 Clear 73 22.8 63 17.2 71 71 ENE 3 6 29.95 1014 10 16 0.00 0.00
8:53 pm 20:53 Clear 70 21.1 62 16.7 76 76 E 3 6 29.96 1014 10 16 0.00 0.00
9:53 pm 21:53 Clear 68 20 62 16.7 81 81 E 3 6 29.97 1015 10 16 0.00 0.00
10:53 pm 22:53 Clear 68 20 62 16.7 81 81 Calm 29.98 1015 10 16 0.00 0.00
11:53 pm 23:53 Clear 65 18.3 61 16.1 87 87 Calm 29.98 1015 10 16 0.00 0.00

Powered by AerisWeather